[Iaude] MPEC F39: 2024 FZ [a=1.97,e=0.47,i=8.3,H=20.3,PHA]

mpec at cfa.harvard.edu mpec at cfa.harvard.edu
Tue Mar 19 16:41:55 EDT 2024


M.P.E.C. 2024-F39                                Issued 2024 March 19, 20:40 UT

     The Minor Planet Electronic Circulars contain information on unusual
         minor planets, routine data on comets and natural satellites,
         and occasional editorial announcements.  They are published
    on behalf of Division F of the International Astronomical Union by the
          Minor Planet Center, Smithsonian Astrophysical Observatory,
                          Cambridge, MA 02138, U.S.A.
			  
             Prepared using the Tamkin Foundation Computer Network

                              MPC at CFA.HARVARD.EDU
            URL https://www.minorplanetcenter.net/    ISSN 1523-6714

                                    2024 FZ                                     


Observations:
     K24F00Z* C2024 03 16.58862215 13 05.568+03 50 45.27         21.46wXEF039F51
     K24F00Z  C2024 03 16.60179715 13 07.225+03 50 50.15         21.50wXEF039F51
     K24F00Z  C2024 03 16.61490215 13 08.890+03 50 54.58         21.29wXEF039F51
     K24F00Z  C2024 03 16.62800315 13 10.555+03 50 59.12         21.35wXEF039F51
     K24F00Z IC2024 03 16.98500715 13 58.85 +03 53 01.0          20.9 GVEF039L01
     K24F00Z IC2024 03 16.99005215 13 59.49 +03 53 02.5          21.1 GVEF039L01
     K24F00Z KC2024 03 16.99346715 13 59.96 +03 53 03.2          21.0 GVEF039L01
     K24F00Z KC2024 03 16.99628115 14 00.35 +03 53 03.8          20.8 GVEF039L01
     K24F00Z 1C2024 03 17.10847 15 14 14.85 +03 53 43.1          21.1 VXEF039033
     K24F00Z 1C2024 03 17.11055 15 14 15.15 +03 53 43.5          21.9 VXEF039033
     K24F00Z 1C2024 03 17.11263 15 14 15.36 +03 53 44.4          21.3 VXEF039033
     K24F00Z 1C2024 03 17.11471 15 14 15.63 +03 53 45.2          20.7 VXEF039033
     K24F00Z KC2024 03 17.34502015 14 46.65 +03 55 10.3          20.8 GVEF039H21
     K24F00Z KC2024 03 17.35061115 14 47.38 +03 55 12.2          21.2 GVEF039H21
     K24F00Z KC2024 03 17.35340715 14 47.71 +03 55 13.4          21.2 GVEF039H21
     K24F00Z 1C2024 03 17.44457215 14 59.881+03 55 44.45               LEF039658
     K24F00Z 1C2024 03 17.44903915 15 00.476+03 55 45.93               LEF039658
     K24F00Z 1C2024 03 17.45349515 15 01.082+03 55 47.45               LEF039658
     K24F00Z 1C2024 03 17.45796315 15 01.688+03 55 49.15               LEF039658
     K24F00Z 1C2024 03 17.46243115 15 02.395+03 55 50.79               LEF039658
     K24F00Z 1C2024 03 18.01675 15 16 16.89 +03 59 12.7          20.6 VXEF039033
     K24F00Z 1C2024 03 18.01884 15 16 17.14 +03 59 13.5          20.4 VXEF039033
     K24F00Z 1C2024 03 18.02093 15 16 17.43 +03 59 14.4          20.8 VXEF039033
     K24F00Z 1C2024 03 18.02302 15 16 17.73 +03 59 14.8          20.7 VXEF039033
     K24F00Z 1C2024 03 19.61277715 19 52.395+04 09 18.44         20.76GVEF039T12
     K24F00Z 1C2024 03 19.61420715 19 52.573+04 09 18.92         20.59GVEF039T12

Observer details:
033 Karl Schwarzschild Observatory, Tautenburg.  Observers S. Melnikov, C.
    Hogner, F. Ludwig, M. Hartmann, B. Stecklum.  Measurer B. Stecklum.
    1.34-m f/3 Schmidt + CCD.
658 National Research Council of Canada.  Observers D. D. Balam, C. E. Spratt.
    Measurers D. D. Balam, D. W. E. Green.  1.82-m Reflector + CCD.
F51 Pan-STARRS 1, Haleakala.  Observers J. Herman, T. Lowe, P. Minguez, A.
    Schultz, I. Smith.  Measurers K. Chambers, T. de Boer, J. Fairlamb, H.
    Gao, M. Huber, C.-C. Lin, E. Magnier, Y. Ramanjooloo, R. Wainscoat, R.
    Weryk.  1.8-m Ritchey-Chretien + CCD.
H21 Astronomical Research Observatory, Westfield.  Observer R. Holmes.
    Measurers T. Linder, R. Holmes, L. Horn.  0.76-m f/3.0 astrograph + CCD.
L01 Visnjan Observatory, Tican.  Observer K. Korlevic.  1.0-m f/2.9 reflector
    + CCD.
T12 University of Hawaii 88-inch telescope, Maunakea.  Observer J. Fairlamb.
    Measurers R. Weryk, J. Fairlamb, Y. Ramanjooloo, R. Wainscoat.  2.24-m
    f/10.1 reflector + CCD.

Orbital elements:
2024 FZ                                             PHA, Earth MOID = 0.0354 AU
Epoch 2024 Mar. 31.0 TT = JDT 2460400.5                 Veres                   
M 333.88912              (2000.0)            P               Q                  
n   0.35730499     Peri.  179.70218     +0.00922877     +0.98952481             
a   1.9668745      Node    90.82349     -0.91774064     +0.06559185             
e   0.4652575      Incl.    8.28415     -0.39707297     -0.12860159             
P   2.76           H   20.32          G   0.15           U   9                  
Residuals in seconds of arc
240316 F51  0.1+  0.0     240317 033  0.6+  0.4-    240317 658  0.3+  0.3-
240316 F51  0.1-  0.2+    240317 033  0.2-  0.2-    240317 658  2.2+  0.3-
240316 F51  0.0   0.0     240317 033  0.2-  0.2-    240318 033  0.4+  0.3+
240316 F51  0.1+  0.1-    240317 H21  0.0   0.2-    240318 033  0.1+  0.3+
240316 L01  0.3-  1.1+    240317 H21  0.2+  0.3-    240318 033  0.3+  0.5+
240316 L01  0.6-  0.8+    240317 H21  0.2-  0.1-    240318 033  0.7+  0.1+
240316 L01  0.2-  0.2+    240317 658  0.8-  0.1-    240319 T12  0.0   0.1+
240316 L01  0.2+  0.2-    240317 658  0.5-  0.3-    240319 T12  0.1-  0.0
240317 033  0.2+  0.0     240317 658  0.1-  0.4-

Ephemeris:
2024 FZ                  a,e,i = 1.97, 0.47, 8                   q = 1.0518
Date    TT    R. A. (2000) Decl.     Delta      r    Elong.  Phase     V
2024 02 18    14 16 30.3 +02 19 56   0.8756  1.5852   116.4    33.9    22.4
...
2024 03 04    14 46 21.5 +02 51 11   0.6915  1.4885   123.4    33.8    21.8
...
2024 03 12    15 03 06.3 +03 25 39   0.6033  1.4373   126.6    33.7    21.4
...
2024 03 18    15 16 14.1 +03 59 18   0.5419  1.3993   128.7    33.7    21.1
2024 03 19    15 18 29.2 +04 05 30   0.5320  1.3930   129.0    33.8    21.1
2024 03 20    15 20 45.4 +04 11 51   0.5223  1.3868   129.3    33.8    21.0
...
2024 03 26    15 34 53.0 +04 53 07   0.4664  1.3495   130.9    34.0    20.7
...
2024 04 03    15 55 26.2 +05 54 52   0.3982  1.3012   132.2    34.7    20.3
...
2024 04 18    16 42 43.1 +07 52 38   0.2898  1.2168   131.9    37.9    19.6

M. P. C. Staff               (C) Copyright 2024 MPC           M.P.E.C. 2024-F39





More information about the Iaude mailing list